When you browse on this site, cookies collect data to enhance your experience and personalize the content and advertising you see.
Visit our Privacy Policy to learn more. By continuing to use the site, you agree to this use of cookies and data.
  • Em Portugal
  • Lista de países
  • Para 7 dias
  • Temperatura da água
  • Mapas de satélite
  • Mapa do tempo
  • Widgets de tempo
  • user-avatar
    Iniciar Sessão

    Previsão horária em Trushniki

    Hoje, 25 Junho, Terça-feira

    Tempo Temperatura Precipitação Vento Pressão Humidade
    00:00 +18°C° 0.1 mm 1 m/s 747 mmHg 73%
    01:00 +16°C° 0.1 mm 1 m/s 747 mmHg 76%
    02:00 +16°C° 0 mm 1 m/s 747 mmHg 78%
    03:00 +16°C° 0 mm 1 m/s 747 mmHg 80%
    04:00 +16°C° 0 mm 1 m/s 747 mmHg 82%
    05:00 +16°C° 0 mm 1 m/s 747 mmHg 82%
    06:00 +17°C° 0 mm 2 m/s 747 mmHg 81%
    07:00 +17°C° 0 mm 2 m/s 747 mmHg 81%
    08:00 +18°C° 0.3 mm 3 m/s 747 mmHg 79%
    09:00 +19°C° 0.3 mm 4 m/s 747 mmHg 76%
    10:00 +20°C° 0.3 mm 5 m/s 747 mmHg 74%
    11:00 +20°C° 0.3 mm 5 m/s 747 mmHg 71%
    12:00 +20°C° 0.3 mm 5 m/s 747 mmHg 68%
    13:00 +20°C° 0.3 mm 5 m/s 747 mmHg 65%
    14:00 +20°C° 0.2 mm 5 m/s 747 mmHg 64%
    15:00 +20°C° 0.2 mm 4 m/s 748 mmHg 62%
    16:00 +20°C° 0.2 mm 4 m/s 748 mmHg 61%
    17:00 +19°C° 0.1 mm 4 m/s 748 mmHg 67%
    18:00 +19°C° 0.1 mm 3 m/s 748 mmHg 72%
    19:00 +18°C° 0.1 mm 3 m/s 748 mmHg 78%
    20:00 +16°C° 0 mm 3 m/s 748 mmHg 82%
    21:00 +13°C° 0 mm 3 m/s 748 mmHg 87%
    22:00 +13°C° 0 mm 2 m/s 749 mmHg 91%
    23:00 +12°C° 0 mm 2 m/s 749 mmHg 92%

    Amanhã, 26 Junho, Quarta-feira

    Tempo Temperatura Precipitação Vento Pressão Humidade
    00:00 +10°C° 0 mm 2 m/s 748 mmHg 93%
    01:00 +10°C° 0 mm 2 m/s 748 mmHg 94%
    02:00 +9°C° 0 mm 2 m/s 748 mmHg 94%
    03:00 +9°C° 0 mm 2 m/s 749 mmHg 94%
    04:00 +9°C° 0 mm 2 m/s 749 mmHg 94%
    05:00 +10°C° 0 mm 2 m/s 749 mmHg 91%
    06:00 +12°C° 0 mm 2 m/s 749 mmHg 88%
    07:00 +12°C° 0 mm 3 m/s 749 mmHg 85%
    08:00 +13°C° 0 mm 3 m/s 749 mmHg 80%
    09:00 +14°C° 0 mm 3 m/s 748 mmHg 75%
    10:00 +17°C° 0 mm 3 m/s 748 mmHg 70%
    11:00 +17°C° 0.2 mm 4 m/s 748 mmHg 69%
    12:00 +17°C° 0.2 mm 4 m/s 748 mmHg 68%
    13:00 +18°C° 0.2 mm 4 m/s 748 mmHg 67%
    14:00 +18°C° 0.4 mm 4 m/s 748 mmHg 67%
    15:00 +18°C° 0.4 mm 4 m/s 748 mmHg 67%
    16:00 +18°C° 0.4 mm 3 m/s 748 mmHg 67%
    17:00 +17°C° 0.4 mm 3 m/s 747 mmHg 73%
    18:00 +16°C° 0.4 mm 3 m/s 747 mmHg 78%
    19:00 +14°C° 0.4 mm 3 m/s 747 mmHg 83%
    20:00 +13°C° 0.1 mm 3 m/s 747 mmHg 85%
    21:00 +13°C° 0.1 mm 2 m/s 747 mmHg 87%
    22:00 +10°C° 0.1 mm 2 m/s 747 mmHg 89%
    23:00 +10°C° 0 mm 2 m/s 747 mmHg 89%

    Depois de amanhã, 27 Junho, Quinta-feira

    Tempo Temperatura Precipitação Vento Pressão Humidade
    00:00 +10°C° 0 mm 2 m/s 747 mmHg 90%
    01:00 +10°C° 0 mm 2 m/s 747 mmHg 91%
    02:00 +10°C° 0.1 mm 2 m/s 747 mmHg 92%
    03:00 +10°C° 0.1 mm 2 m/s 747 mmHg 93%
    04:00 +10°C° 0.1 mm 2 m/s 747 mmHg 94%
    05:00 +10°C° 0.3 mm 2 m/s 747 mmHg 94%
    06:00 +12°C° 0.3 mm 2 m/s 747 mmHg 93%
    07:00 +12°C° 0.3 mm 2 m/s 747 mmHg 93%
    08:00 +13°C° 0.3 mm 2 m/s 747 mmHg 89%
    09:00 +14°C° 0.3 mm 2 m/s 747 mmHg 85%
    10:00 +14°C° 0.3 mm 3 m/s 747 mmHg 81%
    11:00 +16°C° 0.4 mm 3 m/s 746 mmHg 77%
    12:00 +17°C° 0.4 mm 3 m/s 746 mmHg 73%
    13:00 +18°C° 0.4 mm 3 m/s 746 mmHg 69%
    14:00 +18°C° 0.7 mm 3 m/s 746 mmHg 71%
    15:00 +18°C° 0.7 mm 3 m/s 746 mmHg 72%
    16:00 +18°C° 0.7 mm 2 m/s 746 mmHg 74%
    17:00 +17°C° 0.7 mm 2 m/s 746 mmHg 77%
    18:00 +17°C° 0.7 mm 2 m/s 746 mmHg 81%
    19:00 +16°C° 0.7 mm 1 m/s 746 mmHg 85%
    20:00 +15°C° 0 mm 2 m/s 746 mmHg 86%
    21:00 +13°C° 0 mm 2 m/s 746 mmHg 87%
    22:00 +12°C° 0 mm 2 m/s 746 mmHg 89%
    23:00 +10°C° 0 mm 2 m/s 746 mmHg 90%

    28 Junho, Sexta-feira

    Tempo Temperatura Precipitação Vento Pressão Humidade
    00:00 +9°C° 0 mm 2 m/s 746 mmHg 91%
    01:00 +9°C° 0 mm 2 m/s 746 mmHg 92%
    02:00 +9°C° 0 mm 1 m/s 746 mmHg 93%
    03:00 +9°C° 0 mm 1 m/s 746 mmHg 93%
    04:00 +9°C° 0 mm 1 m/s 746 mmHg 93%
    05:00 +9°C° 0 mm 2 m/s 746 mmHg 91%
    06:00 +12°C° 0 mm 2 m/s 746 mmHg 89%
    07:00 +13°C° 0 mm 2 m/s 746 mmHg 88%
    08:00 +15°C° 0 mm 2 m/s 746 mmHg 80%
    09:00 +16°C° 0 mm 2 m/s 746 mmHg 72%
    10:00 +18°C° 0 mm 2 m/s 746 mmHg 65%
    11:00 +19°C° 0.1 mm 2 m/s 746 mmHg 62%
    12:00 +20°C° 0.1 mm 2 m/s 746 mmHg 59%
    13:00 +20°C° 0.1 mm 3 m/s 745 mmHg 55%
    14:00 +21°C° 0 mm 3 m/s 745 mmHg 56%
    15:00 +21°C° 0 mm 3 m/s 745 mmHg 57%
    16:00 +21°C° 0 mm 3 m/s 745 mmHg 58%
    17:00 +20°C° 0 mm 2 m/s 745 mmHg 63%
    18:00 +20°C° 0 mm 2 m/s 745 mmHg 67%
    19:00 +19°C° 0 mm 2 m/s 745 mmHg 72%
    20:00 +17°C° 0 mm 2 m/s 745 mmHg 76%
    21:00 +14°C° 0 mm 3 m/s 745 mmHg 79%
    22:00 +13°C° 0 mm 3 m/s 745 mmHg 82%
    23:00 +12°C° 0 mm 3 m/s 745 mmHg 82%

    29 Junho, Sábado

    Tempo Temperatura Precipitação Vento Pressão Humidade
    00:00 +12°C° 0 mm 4 m/s 745 mmHg 82%
    01:00 +11°C° 0 mm 4 m/s 745 mmHg 82%
    02:00 +11°C° 0 mm 4 m/s 744 mmHg 83%
    03:00 +11°C° 0 mm 4 m/s 744 mmHg 83%
    04:00 +11°C° 0 mm 4 m/s 744 mmHg 84%
    05:00 +12°C° 0 mm 4 m/s 744 mmHg 81%
    06:00 +13°C° 0 mm 5 m/s 744 mmHg 78%
    07:00 +14°C° 0 mm 5 m/s 744 mmHg 74%
    08:00 +16°C° 0 mm 6 m/s 744 mmHg 70%
    09:00 +17°C° 0 mm 6 m/s 744 mmHg 65%
    10:00 +20°C° 0 mm 6 m/s 744 mmHg 60%
    11:00 +21°C° 0 mm 6 m/s 744 mmHg 59%
    12:00 +22°C° 0 mm 7 m/s 744 mmHg 57%
    13:00 +22°C° 0 mm 7 m/s 744 mmHg 56%
    14:00 +21°C° 0.1 mm 7 m/s 744 mmHg 63%
    15:00 +20°C° 0.1 mm 6 m/s 743 mmHg 70%
    16:00 +19°C° 0.1 mm 6 m/s 743 mmHg 77%
    17:00 +17°C° 0.2 mm 6 m/s 744 mmHg 82%
    18:00 +16°C° 0.2 mm 5 m/s 744 mmHg 87%
    19:00 +15°C° 0.2 mm 4 m/s 744 mmHg 92%
    20:00 +15°C° 0 mm 4 m/s 744 mmHg 92%
    21:00 +14°C° 0 mm 4 m/s 744 mmHg 92%
    22:00 +14°C° 0 mm 3 m/s 744 mmHg 91%
    23:00 +15°C° 0 mm 4 m/s 744 mmHg 89%

    30 Junho, Domingo

    Tempo Temperatura Precipitação Vento Pressão Humidade
    00:00 +15°C° 0 mm 4 m/s 744 mmHg 86%
    01:00 +15°C° 0 mm 5 m/s 744 mmHg 83%
    02:00 +15°C° 0 mm 5 m/s 744 mmHg 83%
    03:00 +15°C° 0 mm 4 m/s 744 mmHg 83%
    04:00 +15°C° 0 mm 4 m/s 744 mmHg 83%
    05:00 +17°C° 0 mm 4 m/s 744 mmHg 82%
    06:00 +17°C° 0 mm 4 m/s 744 mmHg 82%
    07:00 +18°C° 0 mm 4 m/s 744 mmHg 81%
    08:00 +18°C° 0 mm 3 m/s 744 mmHg 80%
    09:00 +19°C° 0 mm 3 m/s 745 mmHg 78%
    10:00 +19°C° 0 mm 3 m/s 745 mmHg 77%
    11:00 +20°C° 0 mm 3 m/s 745 mmHg 76%
    12:00 +20°C° 0 mm 2 m/s 745 mmHg 75%
    13:00 +21°C° 0 mm 2 m/s 745 mmHg 74%
    14:00 +21°C° 0.1 mm 2 m/s 745 mmHg 74%
    15:00 +23°C° 0.1 mm 1 m/s 745 mmHg 73%
    16:00 +23°C° 0.1 mm 1 m/s 745 mmHg 72%
    17:00 +23°C° 0 mm 1 m/s 745 mmHg 74%
    18:00 +23°C° 0 mm 2 m/s 745 mmHg 76%
    19:00 +23°C° 0 mm 2 m/s 745 mmHg 79%
    20:00 +20°C° 0.3 mm 2 m/s 745 mmHg 82%
    21:00 +20°C° 0.3 mm 1 m/s 746 mmHg 85%
    22:00 +19°C° 0.3 mm 1 m/s 746 mmHg 88%
    23:00 +19°C° 0.1 mm 1 m/s 746 mmHg 88%
    Mostrar mais